Meteo Giornale » Osservazioni meteo Stati Uniti (USA) » Howell Livingston

ore: 21:55 - Osservazioni Meteo Howell Livingston
Lat. 42° 37' N Lon. 83° 59' W Alt. 293 metri s.l.m.

sereno

25 °C

Sereno

Temp. 24 Ore

21 °C

31 °C

Sud/Sud-Ovest

7.4 Km/h

Dew point 21 °C

Umidità 78 %

Visibilità  10 Km

Il sole sorge alle ore 07:01

Il sole tramonta alle ore 20:10

Data e Ora Cielo e Fenomeni T °C DP °C Um. % Pres. hPa Vis. km Vento km/h
Oggi h: 21:55 sereno Sereno 25 21 78 1014 10 S/SO 7.4
Oggi h: 21:35 sereno Sereno 25 22 83 1015 10 N 5.5
Oggi h: 21:15 poco_nuvoloso Poco Nuvoloso 25 22 83 1015 10 N 5.5
Oggi h: 20:55 poco_nuvoloso Poco Nuvoloso 25 22 83 1015 10 SO 7.4
Oggi h: 20:35 poco_nuvoloso Poco Nuvoloso 26 22 78 1015 10 O/SO 7.4
Oggi h: 20:16 sereno Sereno 26 22 78 1014 10 O/SO 9.3
Oggi h: 19:55 sereno Sereno 27 22 74 1015 10 O/SO 9.3
Oggi h: 19:35 sereno Sereno 27 22 74 1015 10 O/SO 14.8
Oggi h: 19:15 poco_nuvoloso Poco Nuvoloso 28 22 69 1015 10 O/SO 16.7
Oggi h: 18:55 poco_nuvoloso Poco Nuvoloso 28 23 74 1015 10 O/SO 18.5
Oggi h: 18:35 nuvoloso Nuvoloso 29 23 70 1014 10 O/SO 22.2
Oggi h: 18:15 molto_nuvoloso Molto Nuvoloso 31 24 66 1014 10 O 18.5
Oggi h: 17:56 molto_nuvoloso Molto Nuvoloso 31 24 66 1014 10 O/SO 13
Oggi h: 17:35 nuvoloso Nuvoloso 30 24 70 1014 10 O/SO 9.3
Oggi h: 17:15 poco_nuvoloso Poco Nuvoloso 31 24 66 1014 10 O 11.1
Oggi h: 16:55 nuvoloso Nuvoloso 31 24 66 1014 10 O/SO 13
Oggi h: 16:35 nuvoloso Nuvoloso 30 24 70 1014 10 O 11.1
Oggi h: 16:15 nuvoloso Nuvoloso 30 24 70 1014 10 O/SO 11.1
Oggi h: 15:55 molto_nuvoloso Molto Nuvoloso 31 24 66 1014 10 O 13
Oggi h: 15:36 molto_nuvoloso Molto Nuvoloso 31 24 66 1015 10 O 16.7
Oggi h: 15:15 poco_nuvoloso Poco Nuvoloso 31 24 66 1015 10 O/SO 13
Oggi h: 14:55 poco_nuvoloso Poco Nuvoloso 31 24 66 1015 10 O 14.8
Oggi h: 14:35 molto_nuvoloso Molto Nuvoloso 30 24 70 1015 10 O 13
Oggi h: 14:15 molto_nuvoloso Molto Nuvoloso 31 23 62 1015 10 O/NO 9.3
Oggi h: 13:55 nuvoloso Nuvoloso 30 23 66 1014 10 O/SO 13
Oggi h: 13:35 nuvoloso Nuvoloso 30 24 70 1014 10 O/SO 14.8
Oggi h: 13:16 poco_nuvoloso Poco Nuvoloso 30 24 70 1015 10 O/SO 11.1
Oggi h: 12:55 poco_nuvoloso Poco Nuvoloso 30 23 66 1015 10 O/SO 9.3
Oggi h: 12:35 poco_nuvoloso Poco Nuvoloso 29 23 70 1015 10 O 9.3
Oggi h: 12:15 sereno Sereno 29 23 70 1015 10 N 7.4
Oggi h: 11:55 sereno Sereno 28 23 74 1015 10 O/SO 9.3
Oggi h: 11:35 sereno Sereno 28 23 74 1015 10 N 9.3
Oggi h: 11:15 sereno Sereno 28 23 74 1015 10 SO 7.4
Oggi h: 10:35 sereno Sereno 26 22 78 1015 10 O/SO 7.4
Oggi h: 10:15 sereno Sereno 25 21 78 1015 10 O 9.3
Oggi h: 09:55 sereno Sereno 25 21 78 1015 10 O 11.1
Oggi h: 09:35 sereno Sereno 24 21 83 1015 10 O 13
Oggi h: 09:15 sereno Sereno 24 21 83 1015 10 O 11.1
Oggi h: 08:55 sereno Sereno 24 21 83 1015 10 O/SO 11.1
Oggi h: 08:36 sereno Sereno 23 20 83 1015 10 O/SO 9.3
Oggi h: 08:15 sereno Sereno 22 20 88 1015 10 SO 11.1
Oggi h: 07:55 sereno Sereno 22 20 88 1015 10 SO 11.1
Oggi h: 07:35 sereno Sereno 21 20 94 1015 10 SO 7.4
Oggi h: 07:15 sereno Sereno 21 20 94 1015 10 SO 9.3
Oggi h: 06:55 sereno Sereno 21 20 94 1015 10 O/SO 7.4
Oggi h: 06:35 sereno Sereno 21 19 88 1014 10 N 5.5
Oggi h: 06:16 sereno Sereno 21 20 94 1015 10 SO 7.4
Oggi h: 05:55 sereno Sereno 21 20 94 1014 10 N 5.5
Oggi h: 05:35 sereno Sereno 21 20 94 1014 10 N 5.5
Oggi h: 05:15 sereno Sereno 21 20 94 1014 10 N 5.5
Oggi h: 04:55 sereno Sereno 21 20 94 1014 10 N 5.5
Oggi h: 04:35 sereno Sereno 21 20 94 1014 10 N 5.5
Oggi h: 04:15 sereno Sereno 21 20 94 1014 10 N 5.5
Oggi h: 03:56 sereno Sereno 21 20 94 1014 10 SO 7.4
Oggi h: 03:35 sereno Sereno 21 20 94 1014 10 N 5.5
Oggi h: 03:15 sereno Sereno 22 20 88 1014 10 S/SO 7.4
Oggi h: 02:55 sereno Sereno 22 20 88 1014 10 SO 7.4
Oggi h: 02:35 sereno Sereno 22 20 88 1014 10 SO 7.4
Oggi h: 02:15 sereno Sereno 22 20 88 1014 10 N 5.5
Oggi h: 01:55 sereno Sereno 22 20 88 1014 10 N 5.5
Oggi h: 01:36 sereno Sereno 22 20 88 1015 13 N 3.7
Oggi h: 01:15 sereno Sereno 22 20 88 1014 10 N 3.7
Oggi h: 00:55 sereno Sereno 23 20 83 1014 10 N 5.5
Oggi h: 00:35 sereno Sereno 23 21 88 1014 10 SO 11.1
Oggi h: 00:15 sereno Sereno 23 21 88 1014 10 SO 11.1
Ieri h: 23:55 sereno Sereno 23 20 83 1014 10 SO 9.3
Ieri h: 23:35 sereno Sereno 23 20 83 1014 10 S/SO 13
Ieri h: 23:16 sereno Sereno 23 20 83 1014 10 S/SO 9.3
Ieri h: 22:55 sereno Sereno 23 20 83 1015 10 SO 11.1
Ieri h: 22:35 sereno Sereno 23 20 83 1015 10 SO 9.3